EHI
0 0 0 0 0 0 0 0 0 0 0 0 0 0 0 0 0 0 0 0 0 0 0 0 0 0 0 0 0 0 0 0 0 0 0 0 0 0 0 0 0 0 0
0 0 0 0 0 0 0 0 0 0 0 0 0 0 0 0 0 0 0 0 0 0 0 0 0 0 0 0 0 0 0 0 0 0 0 0 0 0 0 0 0 0 0
0 0 0 0 0 0 0 0 0 0 0 0 0 0 0 0 0 0 0 0 0 0 0 0 0 0 0 0 0 0 0 0 0 0 0 0 0 0 0 0 0 0 0
0 0 0 0 0 0 0 0 0 0 0 0 0 0 0 0 0 0 0 0 0 0 0 0 0 0 0 0 0 0 0 0 0 0 0 0 0 0 0 0 0 0 0
0 0 0 0 0 0 0 0 0 0 0 0 0 0 0 0 0 0 0 0 0 0 0 0 0 0 0 0 0 0 0 0 0 0 0 0 0 0 0 0 0 0 0
0 0 0 0 0 0 0 0 0 0 0 0 0 0 0 0 0 0 0 0 0 0 0 0 0 0 0 0 0 0 0 0 0 0 0 0 0 0 0 0 0 0 0
0 0 0 0 0 0 0 0 0 0 0 0 0 0 0 0 0 0 0 0 0 0 0 0 0 0 0 0 0 0 0 0 0 0 0 0 0 0 0 0 0 0 0
0 0 0 0 0 0 0 0 0 0 0 0 0 0 0 0 0 0 0 0 0 0 0 0 0 0 0 0 0 0 0 0 0 0 0 0 0 0 0 0 0 0 0
0 0 0 0 0 0 0 0 0 0 0 0 0 0 0 0 0 0 0 0 0 0 0 0 0 0 0 0 0 0 0 0 0 0 0 0 0 0 0 0 0 0 0
0 0 0 0 0 0 0 0 0 0 0 0 0 0 0 0 0 0 0 0 0 0 0 0 0 0 0 0 0 0 0 0 0 0 0 0 0 0 0 0 0 0 0
0 0 0 0 0 0 0 0 0 0 0 0 0 0 0 0 0 0 0 0 0 0 0 0 0 0 0 0 0 0 0 0 0 0 0 0 0 0 0 0 0 0 0
0 0 0 0 0 0 0 0 0 0 0 0 0 0 0 0 0 0 0 0 0 0 0 0 0 0 0 0 0 0 0 0 0 0 0 0 0 0 0 0 0 0 0
0 0 0 0 0 0 0 0 0 0 0 0 0 0 0 0 0 0 0 0 0 0 0 0 0 0 0 0 0 0 0 0 0 0 0 0 0 0 0 0 0 0 0
0 0 0 0 0 0 0 0 0 0 0 0 0 0 0 0 0 0 0 0 0 0 0 0 0 0 0 0 0 0 0 0 0 0 0 0 0 0 0 0 0 0 0
0 0 0 0 0 0 0 0 0 0 0 0 0 0 0 0 0 0 0 0 0 0 0 0 0 0 0 0 0 0 0 0 0 0 0 0 0 0 0 0 0 0 0
0 0 0 0 0 0 0 0 0 0 0 0 0 0 0 0 0 0 0 0 0 0 0 0 0 0 0 0 0 0 0 0 0 0 0 0 0 0 0 0 0 0 0
0 0 0 0 0 0 0 0 0 0 0 0 0 0 0 0 0 0 0 0 0 0 0 0 0 0 0 0 0 0 0 0 0 0 0 0 0 0 0 0 0 0 0
0 0 0 0 0 0 0 0 0 0 0 0 0 0 0 0 0 0 0 0 0 0 0 0 0 0 0 0 0 0 0 0 0 0 0 0 0 0 0 0 0 0 0
0 0 0 0 0 0 0 0 0 0 0 0 0 0 0 0 0 0 0 0 0 0 0 0 0 0 0 0 0 0 0 0 0 0 0 0 0 0 0 0 0 0 0
0 0 0 0 0 0 0 0 0 0 0 0 0 0 0 0 0 0 0 0 0 0 0 0 0 0 0 0 0 0 0 0 0 0 0 0 0 0 0 0 0 0 0
0 0 0 0 0 0 0 0 0 0 0 0 0 0 0 0 0 0 0 0 0 0 0 0 0 0 0 0 0 0 0 0 0 0 0 0 0 0 0 0 0 0 0
0 0 0 0 0 0 0 0 0 0 0 0 0 0 0 0 0 0 0 0 0 0 0 0 0 0 0 0 0 0 0 0 0 0 0 0 0 0 0 0 0 0 0
0 0 0 0 0 0 0 0 0 0 0 0 0 0 0 0 0 0 0 0 0 0 0 0 0 0 0 0 0 0 0 0 0 0 0 0 0 0 0 0 0 0 0
0 0 0 0 0 0 0 0 0 0 0 0 0 0 0 0 0 0 0 0 0 0 0 0 0 0 0 0 0 0 0 0 0 0 0 0 0 0 0 0 0 0 0
0 0 0 0 0 0 0 0 0 0 0 0 0 0 0 0 0 0 0 0 0 0 0 0 0 0 0 0 0 0 0 0 0 0 0 0 0 0 0 0 0 0 0
0 0 0 0 0 0 0 0 0 0 0 0 0 0 0 0 0 0 0 0 0 0 0 0 0 0 0 0 0 0 0 0 0 0 0 0 0 0 0 0 0 0 0
Wind_Speed
4 4 3 3 3 3 2 3 2 2 2 2 2 2 2 2 2 2 2 2 2 3 3 3 3 3 3 3 3 3 3 4 7 6 4 4 4 5 5 5 5 5 6
4 4 4 3 3 3 3 3 2 2 2 2 2 2 2 3 2 2 3 3 2 3 3 3 4 4 4 3 3 4 4 4 5 8 5 4 5 5 5 6 6 6 5
3 3 4 3 3 4 4 3 3 2 2 2 2 2 2 3 3 3 3 3 3 3 3 4 4 4 4 4 4 4 4 4 4 6 6 4 4 4 5 5 5 5 6
3 3 4 5 4 4 4 3 3 3 3 2 2 2 3 3 3 3 3 3 3 4 4 4 4 4 5 5 4 4 4 4 4 5 6 5 5 4 3 4 6 4 5
3 4 5 5 4 3 3 3 3 3 3 3 2 3 3 3 3 3 3 3 4 4 4 4 5 6 7 6 5 4 4 4 4 5 5 5 5 4 4 4 6 6 5
4 5 4 4 4 4 4 3 3 3 3 3 3 3 3 3 5 6 5 3 4 4 5 5 5 6 7 9 9 8 6 5 5 5 5 6 6 5 5 5 5 5 5
4 4 4 4 4 4 4 3 4 4 3 3 4 3 4 5 7 8 8 4 4 4 5 5 5 5 6 5 7 9 8 10 9 6 6 7 7 6 6 6 5 6 6
4 4 4 4 4 4 4 4 4 3 3 4 4 4 4 5 8 8 8 4 4 4 4 4 5 5 5 5 5 5 6 6 7 6 6 7 7 6 6 6 6 6 5
4 5 4 4 4 4 5 5 4 3 4 4 3 4 4 5 8 8 7 3 3 4 4 4 5 5 9 10 6 5 6 6 8 9 10 9 10 10 8 4 4 4 5
5 5 4 4 4 5 6 5 4 4 4 4 4 4 4 5 7 8 7 2 3 4 4 4 7 7 9 10 6 5 7 7 6 6 6 7 6 7 8 5 4 4 4
4 4 4 4 4 5 4 4 3 3 3 3 4 4 4 5 7 8 8 3 3 4 4 4 4 9 11 11 9 5 7 8 5 5 5 4 4 3 4 4 4 4 4
3 3 4 4 4 3 4 3 3 3 3 4 3 4 3 4 5 7 9 7 5 4 4 4 5 10 10 10 8 8 10 9 4 4 4 4 4 4 4 4 4 4 5
3 4 4 4 3 3 4 4 3 3 3 3 3 4 4 3 4 8 9 9 8 4 4 7 9 10 9 7 8 9 7 4 3 4 4 4 4 4 4 4 4 4 4
4 4 3 3 3 3 3 3 3 4 4 4 4 4 4 3 3 4 4 4 6 5 4 6 8 8 6 7 7 5 3 3 3 4 4 4 3 3 3 3 3 4 4
4 4 4 3 4 4 4 4 5 5 5 5 5 4 4 5 6 7 4 3 3 4 3 2 2 3 3 3 3 3 3 3 4 4 3 4 4 4 4 3 3 3 3
4 4 3 3 3 3 3 4 7 7 8 9 8 6 5 8 8 8 8 8 8 7 3 3 3 3 4 4 4 4 3 3 3 4 3 3 3 4 4 3 3 3 4
5 4 3 3 3 3 3 3 4 4 6 8 8 9 9 8 9 9 8 8 7 6 4 3 4 4 4 4 4 4 4 3 3 3 3 3 3 4 4 4 4 4 4
5 5 4 4 3 3 4 4 4 3 3 3 5 8 9 9 9 8 7 5 4 4 3 4 4 4 4 4 4 4 4 3 3 3 3 3 3 3 3 4 4 4 4
4 3 3 3 3 3 3 3 3 4 4 4 3 4 7 7 7 7 5 3 3 4 4 4 4 4 4 4 4 4 4 4 4 3 3 4 3 3 3 3 4 6 5
4 6 4 3 3 3 3 3 4 4 4 4 4 4 2 2 3 3 3 3 4 4 4 4 4 4 4 4 4 4 4 4 4 3 3 3 3 3 4 4 4 4 4
3 4 5 4 3 3 3 4 4 4 4 4 4 5 5 3 4 4 4 4 4 4 4 4 4 4 4 4 4 4 5 4 4 3 3 3 3 3 3 3 4 4 4
3 3 3 3 3 3 4 4 4 4 5 5 4 4 8 4 3 4 4 4 4 4 4 4 4 4 4 4 4 4 4 4 4 3 3 3 3 3 3 3 3 3 4
3 3 3 3 3 5 4 3 4 4 4 4 4 4 4 4 4 4 4 4 4 3 3 3 4 4 3 3 3 4 4 4 4 4 4 4 3 3 3 3 4 4 4
3 4 4 3 3 3 4 4 4 4 4 4 4 4 4 4 4 4 4 3 3 3 3 3 4 5 6 4 3 3 4 4 4 4 5 4 4 3 3 3 3 4 4
3 3 4 4 4 4 4 4 4 4 4 4 4 4 4 4 4 4 3 3 4 4 4 4 3 4 5 6 5 4 7 8 7 4 4 3 4 4 3 4 3 4 4
3 4 4 3 3 4 4 4 4 4 4 4 4 4 4 4 4 3 3 3 3 3 4 3 4 5 5 5 5 7 8 8 8 7 4 3 3 3 3 3 4 3 3
Wind_Direction
229 222 218 216 212 211 215 226 233 250 263 271 281 290 294 301 301 304 300 308 312 312 312 309 304 302 298 298 293 282 271 265 273 285 284 289 282 288 299 298 295 293 292
230 218 218 215 209 213 225 229 225 238 252 259 272 285 289 294 295 293 295 305 300 302 303 303 299 299 299 294 291 285 275 267 271 283 289 287 278 283 289 296 304 305 296
224 220 222 221 218 221 226 225 223 229 244 254 260 271 280 286 291 289 286 292 288 285 286 287 289 291 291 293 292 287 280 279 274 279 286 285 283 288 295 296 295 294 298
222 223 228 229 225 224 222 221 224 225 232 242 252 261 269 277 280 280 286 289 288 285 283 282 283 282 282 286 286 285 287 285 284 281 284 288 286 288 290 295 301 302 297
221 230 235 233 224 221 223 224 224 228 235 237 247 261 268 270 270 277 284 285 284 286 287 284 283 284 281 282 286 286 288 288 287 287 288 291 290 295 291 290 297 302 295
222 233 237 231 224 223 223 220 222 231 235 235 242 252 262 271 280 281 285 273 275 278 285 287 287 288 291 294 292 288 284 284 285 281 284 286 288 287 287 287 294 302 298
232 235 233 228 228 228 224 218 224 229 226 234 242 244 254 266 277 281 283 285 272 273 278 284 291 293 297 296 296 297 294 292 286 279 279 278 280 279 286 288 284 285 281
239 240 237 233 234 231 220 224 229 226 227 235 242 243 253 268 279 283 288 285 274 273 277 281 284 291 293 296 296 299 291 289 289 283 270 273 273 273 269 275 276 283 285
248 245 238 229 233 229 228 231 228 223 234 236 241 242 249 267 277 283 288 281 279 282 285 286 287 288 295 301 298 294 299 298 297 291 288 290 294 294 290 289 285 287 292
249 247 240 226 225 231 232 232 225 221 232 239 246 241 242 256 272 280 284 266 273 282 287 285 284 291 297 301 297 294 297 298 301 304 298 296 295 294 293 275 264 267 287
253 249 242 232 229 233 235 231 227 225 230 237 247 251 246 253 269 276 280 268 262 276 282 286 287 296 298 300 299 290 291 302 304 298 294 293 294 295 296 287 270 256 264
248 246 245 241 238 236 231 235 227 217 227 241 248 262 254 254 264 274 278 276 276 268 274 280 285 295 298 301 303 302 306 313 309 301 297 299 301 300 296 290 280 269 259
245 249 252 250 242 232 224 228 227 218 224 240 244 257 266 256 262 269 274 279 280 274 271 284 293 297 300 300 301 307 311 310 307 303 299 294 290 288 292 293 290 290 289
244 253 253 249 252 242 229 221 220 222 227 237 243 253 261 262 254 258 263 269 276 276 276 283 291 296 296 296 302 306 304 296 298 292 294 292 294 296 295 298 300 311 312
246 252 253 248 246 246 238 228 227 226 224 230 233 235 245 256 258 264 271 266 268 270 293 294 290 297 295 296 299 298 299 303 302 298 293 300 307 308 304 304 295 302 299
249 250 245 245 246 243 246 261 251 247 253 249 250 249 251 259 277 273 269 269 271 272 276 275 274 276 282 291 296 298 294 295 297 299 295 297 302 304 307 309 304 297 295
241 247 245 242 241 241 240 246 268 271 258 256 257 260 261 269 272 273 271 269 264 261 256 264 269 272 277 283 288 291 293 295 296 296 297 294 295 299 303 306 305 302 297
241 245 243 238 236 236 235 237 240 251 270 273 265 264 267 268 269 268 267 263 262 254 253 260 267 270 273 276 281 286 291 295 294 294 296 296 291 293 298 299 300 299 300
239 243 239 238 238 237 237 238 241 245 252 264 275 274 268 269 266 261 253 242 251 257 256 259 262 265 269 271 273 278 282 283 286 289 290 292 293 292 291 293 297 298 302
242 246 242 239 238 236 232 235 242 245 248 251 254 261 267 262 259 260 249 245 249 254 256 259 261 262 266 268 270 274 279 279 279 280 284 287 288 289 287 288 292 297 299
245 250 247 242 234 233 232 234 238 243 247 251 254 255 253 243 245 249 250 249 250 254 257 258 260 261 262 262 262 264 268 272 268 272 276 279 283 287 286 284 286 291 299
238 243 239 238 239 239 241 238 238 243 248 253 261 262 260 253 246 250 252 254 255 255 256 257 259 259 258 257 258 260 264 269 267 265 269 272 276 282 285 284 288 294 298
232 242 246 244 239 249 252 242 240 245 250 251 253 255 253 248 249 251 253 255 256 258 257 254 259 264 264 258 251 247 253 259 258 252 257 265 271 274 278 279 281 291 296
227 235 242 246 241 239 244 247 245 248 251 252 252 252 250 249 250 253 254 255 256 259 257 254 255 261 264 264 259 255 255 261 260 247 241 248 258 267 272 277 281 283 287
228 234 238 239 239 240 243 247 248 249 251 253 252 251 252 251 253 256 255 253 251 254 258 259 260 260 261 261 263 263 266 270 272 264 241 240 247 253 262 270 277 287 288
234 236 238 236 237 239 241 246 249 249 250 252 252 250 247 249 253 254 254 252 253 255 259 261 262 266 268 265 262 265 271 271 271 269 259 241 238 249 257 266 271 278 284